START_TIME,STEP,MOV.,P11,t_acc.,P23,t_acc.,P27,t_acc.,A4,t_acc.
1979-08-05 06:00:21.710 ,0,1,1.,4.8,0.,4.8,0.,4.8,0.,4.8
1979-08-05 06:00:26.510 ,0,1,2.,4.8,0.,4.8,1.,4.8,0.,4.8
1979-08-05 06:00:31.310 ,0,1,3.,4.8,0.,4.8,1.,4.8,0.,4.8
1979-08-05 06:00:36.110 ,0,1,1.,4.8,0.,4.8,2.,4.8,0.,4.8
1979-08-05 06:00:40.910 ,0,1,0.,4.8,2.,4.8,0.,4.8,0.,4.8
1979-08-05 06:00:45.710 ,4,1,2.,4.8,0.,4.8,0.,4.8,0.,4.8
1979-08-05 06:00:50.510 ,4,1,3.,4.8,0.,4.8,1.,4.8,0.,4.8
1979-08-05 06:00:55.310 ,4,1,2.,4.8,0.,4.8,0.,4.8,0.,4.8
1979-08-05 06:01:00.110 ,4,1,0.,4.8,0.,4.8,0.,4.8,0.,4.8
1979-08-05 06:01:04.910 ,4,1,3.,4.8,0.,4.8,1.,4.8,0.,4.8
1979-08-05 06:01:09.710 ,7,1,1.,4.8,1.,4.8,1.,4.8,0.,4.8
1979-08-05 06:01:14.510 ,7,1,2.,4.8,0.,4.8,0.,4.8,0.,4.8
1979-08-05 06:01:19.310 ,7,1,5.,4.8,1.,4.8,0.,4.8,0.,4.8
1979-08-05 06:01:24.110 ,7,1,1.,4.8,1.,4.8,2.,4.8,0.,4.8
1979-08-05 06:01:28.910 ,7,1,2.,4.8,0.,4.8,0.,4.8,0.,4.8
1979-08-05 06:01:33.710 ,3,1,1.,4.8,0.,4.8,1.,4.8,0.,4.8
1979-08-05 06:01:38.510 ,3,1,2.,4.8,0.,4.8,0.,4.8,0.,4.8
1979-08-05 06:01:43.310 ,3,1,1.,4.8,2.,4.8,0.,4.8,0.,4.8
1979-08-05 06:01:48.110 ,3,1,3.,4.8,0.,4.8,0.,4.8,0.,4.8
1979-08-05 06:01:52.910 ,3,1,2.,4.8,0.,4.8,0.,4.8,0.,4.8
1979-08-05 06:01:57.710 ,0,0,0.,4.8,0.,4.8,1.,4.8,0.,4.8
1979-08-05 06:02:02.510 ,0,0,0.,4.8,0.,4.8,0.,4.8,0.,4.8
1979-08-05 06:02:07.310 ,0,0,2.,4.8,0.,4.8,1.,4.8,0.,4.8
1979-08-05 06:02:12.110 ,0,0,7.,4.8,0.,4.8,1.,4.8,0.,4.8
1979-08-05 06:02:16.910 ,0,0,2.,4.8,0.,4.8,0.,4.8,0.,4.8
1979-08-05 06:02:23.510 ,4,1,,0,,0,,0,,0
1979-08-05 06:02:28.310 ,4,1,,0,,0,,0,,0
1979-08-05 06:02:33.110 ,4,1,2.,4.8,1.,4.8,1.,4.8,0.,4.8
1979-08-05 06:02:37.910 ,4,1,1.,4.8,1.,4.8,0.,4.8,0.,4.8
1979-08-05 06:02:42.710 ,4,1,1.,4.8,1.,4.8,1.,4.8,0.,4.8
1979-08-05 06:02:45.710 ,7,1,1.,4.8,0.,4.8,3.,4.8,0.,4.8
1979-08-05 06:02:50.510 ,7,1,2.,4.8,2.,4.8,1.,4.8,0.,4.8
1979-08-05 06:02:55.310 ,7,1,1.,4.8,1.,4.8,0.,4.8,0.,4.8
1979-08-05 06:03:00.110 ,7,1,2.,4.8,0.,4.8,0.,4.8,0.,4.8
1979-08-05 06:03:04.910 ,7,1,1.,4.8,1.,4.8,0.,4.8,0.,4.8
1979-08-05 06:03:09.710 ,3,1,0.,4.8,1.,4.8,0.,4.8,0.,4.8
1979-08-05 06:03:14.510 ,3,1,0.,4.8,3.,4.8,0.,4.8,0.,4.8
1979-08-05 06:03:19.310 ,3,1,5.,4.8,1.,4.8,0.,4.8,0.,4.8
1979-08-05 06:03:24.110 ,3,1,3.,4.8,0.,4.8,0.,4.8,0.,4.8
1979-08-05 06:03:28.910 ,3,1,2.,4.8,1.,4.8,0.,4.8,0.,4.8
1979-08-05 06:03:33.710 ,0,1,1.,4.8,0.,4.8,0.,4.8,0.,4.8
1979-08-05 06:03:38.510 ,0,1,3.,4.8,3.,4.8,0.,4.8,0.,4.8
1979-08-05 06:03:43.310 ,0,1,0.,4.8,1.,4.8,1.,4.8,0.,4.8
1979-08-05 06:03:48.110 ,0,1,3.,4.8,0.,4.8,0.,4.8,0.,4.8
1979-08-05 06:03:52.910 ,0,1,0.,4.8,1.,4.8,0.,4.8,0.,4.8
1979-08-05 06:03:57.710 ,4,1,5.,4.8,0.,4.8,1.,4.8,0.,4.8
1979-08-05 06:04:02.510 ,4,1,0.,4.8,0.,4.8,0.,4.8,0.,4.8
1979-08-05 06:04:07.310 ,4,1,3.,4.8,2.,4.8,0.,4.8,0.,4.8
1979-08-05 06:04:12.110 ,4,1,2.,4.8,1.,4.8,0.,4.8,0.,4.8
1979-08-05 06:04:16.910 ,4,1,0.,4.8,0.,4.8,0.,4.8,0.,4.8
1979-08-05 06:04:21.710 ,7,1,2.,4.8,0.,4.8,0.,4.8,0.,4.8
1979-08-05 06:04:26.510 ,7,1,2.,4.8,0.,4.8,3.,4.8,0.,4.8
1979-08-05 06:04:31.310 ,7,1,0.,4.8,0.,4.8,1.,4.8,0.,4.8
1979-08-05 06:04:36.110 ,7,1,3.,4.8,0.,4.8,0.,4.8,0.,4.8
1979-08-05 06:04:40.910 ,7,1,2.,4.8,0.,4.8,1.,4.8,0.,4.8
1979-08-05 06:04:45.710 ,3,1,1.,4.8,0.,4.8,0.,4.8,0.,4.8
1979-08-05 06:04:50.510 ,3,1,2.,4.8,0.,4.8,0.,4.8,0.,4.8
1979-08-05 06:04:55.310 ,3,1,1.,4.8,0.,4.8,0.,4.8,0.,4.8
1979-08-05 06:05:00.110 ,3,1,4.,4.8,0.,4.8,2.,4.8,0.,4.8
1979-08-05 06:05:04.910 ,3,1,3.,4.8,1.,4.8,1.,4.8,0.,4.8
1979-08-05 06:05:09.710 ,0,1,0.,4.8,0.,4.8,1.,4.8,0.,4.8
1979-08-05 06:05:14.510 ,0,1,3.,4.8,0.,4.8,1.,4.8,0.,4.8
1979-08-05 06:05:19.310 ,0,1,0.,4.8,1.,4.8,1.,4.8,0.,4.8
1979-08-05 06:05:24.110 ,0,1,4.,4.8,1.,4.8,3.,4.8,0.,4.8
1979-08-05 06:05:28.910 ,0,1,5.,4.8,0.,4.8,0.,4.8,0.,4.8
1979-08-05 06:05:33.710 ,0,0,1.,4.8,1.,4.8,1.,4.8,0.,4.8
1979-08-05 06:05:38.510 ,0,0,1.,4.8,0.,4.8,0.,4.8,0.,4.8
1979-08-05 06:05:43.310 ,0,0,2.,4.8,1.,4.8,1.,4.8,0.,4.8
1979-08-05 06:05:48.110 ,0,0,1.,4.8,0.,4.8,1.,4.8,0.,4.8
1979-08-05 06:05:52.910 ,0,0,1.,4.8,1.,4.8,1.,4.8,0.,4.8
1979-08-05 06:05:57.710 ,0,0,2.,4.8,0.,4.8,0.,4.8,0.,4.8
1979-08-05 06:06:02.510 ,0,0,3.,4.8,0.,4.8,0.,4.8,0.,4.8
1979-08-05 06:06:07.310 ,0,0,0.,4.8,1.,4.8,0.,4.8,0.,4.8
1979-08-05 06:06:12.110 ,0,0,1.,4.8,0.,4.8,1.,4.8,0.,4.8
1979-08-05 06:06:16.910 ,0,0,1.,4.8,0.,4.8,0.,4.8,0.,4.8
1979-08-05 06:06:21.710 ,5,0,0.,4.8,0.,4.8,0.,4.8,0.,4.8
1979-08-05 06:06:26.510 ,5,0,3.,4.8,0.,4.8,1.,4.8,0.,4.8
1979-08-05 06:06:31.310 ,5,0,1.,4.8,0.,4.8,0.,4.8,0.,4.8
1979-08-05 06:06:36.110 ,5,0,5.,4.8,1.,4.8,0.,4.8,0.,4.8
1979-08-05 06:06:40.910 ,5,0,2.,4.8,0.,4.8,1.,4.8,0.,4.8
1979-08-05 06:06:45.710 ,5,0,2.,4.8,2.,4.8,1.,4.8,0.,4.8
1979-08-05 06:06:50.510 ,5,0,2.,4.8,1.,4.8,3.,4.8,0.,4.8
1979-08-05 06:06:55.310 ,5,0,4.,4.8,0.,4.8,0.,4.8,0.,4.8
1979-08-05 06:07:00.110 ,5,0,2.,4.8,0.,4.8,1.,4.8,0.,4.8
1979-08-05 06:07:04.910 ,5,0,1.,4.8,1.,4.8,0.,4.8,0.,4.8
1979-08-05 06:07:09.710 ,4,0,1.,4.8,1.,4.8,0.,4.8,0.,4.8
1979-08-05 06:07:14.510 ,4,0,2.,4.8,2.,4.8,1.,4.8,0.,4.8
1979-08-05 06:07:19.310 ,4,0,0.,4.8,2.,4.8,2.,4.8,0.,4.8
1979-08-05 06:07:24.110 ,4,0,1.,4.8,2.,4.8,2.,4.8,0.,4.8
1979-08-05 06:07:28.910 ,4,0,0.,4.8,1.,4.8,1.,4.8,0.,4.8
1979-08-05 06:07:33.710 ,4,0,4.,4.8,1.,4.8,0.,4.8,0.,4.8
1979-08-05 06:07:38.510 ,4,0,2.,4.8,0.,4.8,1.,4.8,0.,4.8
1979-08-05 06:07:43.310 ,4,0,2.,4.8,0.,4.8,2.,4.8,0.,4.8
1979-08-05 06:07:48.110 ,4,0,1.,4.8,2.,4.8,0.,4.8,0.,4.8
1979-08-05 06:07:52.910 ,4,0,1.,4.8,1.,4.8,2.,4.8,0.,4.8
1979-08-05 06:07:57.710 ,3,0,2.,4.8,2.,4.8,3.,4.8,0.,4.8
1979-08-05 06:08:02.510 ,3,0,3.,4.8,0.,4.8,1.,4.8,0.,4.8
1979-08-05 06:08:07.310 ,3,0,1.,4.8,0.,4.8,0.,4.8,0.,4.8
1979-08-05 06:08:12.110 ,3,0,2.,4.8,0.,4.8,0.,4.8,0.,4.8
1979-08-05 06:08:16.910 ,3,0,3.,4.8,0.,4.8,0.,4.8,0.,4.8
1979-08-05 06:08:21.710 ,0,0,0.,4.8,1.,4.8,0.,4.8,0.,4.8
1979-08-05 06:08:26.510 ,0,0,0.,4.8,0.,4.8,0.,4.8,0.,4.8
1979-08-05 06:08:31.310 ,0,0,4.,4.8,0.,4.8,0.,4.8,0.,4.8
1979-08-05 06:08:36.110 ,0,0,1.,4.8,0.,4.8,0.,4.8,0.,4.8
1979-08-05 06:08:40.910 ,0,0,1.,4.8,0.,4.8,1.,4.8,0.,4.8
1979-08-05 06:08:51.110 ,0,0,,0,,0,,0,,0
1979-08-05 06:08:55.910 ,0,0,0.,4.8,1.,4.8,0.,4.8,0.,4.8
1979-08-05 06:09:00.710 ,0,0,2.,4.8,2.,4.8,0.,4.8,0.,4.8
1979-08-05 06:09:05.510 ,0,0,1.,4.8,1.,4.8,2.,4.8,0.,4.8
1979-08-05 06:09:10.310 ,0,0,2.,4.8,0.,4.8,1.,4.8,0.,4.8
1979-08-05 06:09:09.710 ,0,0,1.,4.8,2.,4.8,0.,4.8,0.,4.8
1979-08-05 06:09:14.510 ,0,0,0.,4.8,1.,4.8,1.,4.8,0.,4.8
1979-08-05 06:09:19.310 ,0,0,1.,4.8,0.,4.8,1.,4.8,0.,4.8
1979-08-05 06:09:24.110 ,0,0,3.,4.8,1.,4.8,0.,4.8,0.,4.8
1979-08-05 06:09:28.910 ,0,0,2.,4.8,0.,4.8,1.,4.8,0.,4.8
1979-08-05 06:09:33.710 ,1,0,2.,4.8,0.,4.8,1.,4.8,0.,4.8
1979-08-05 06:09:38.510 ,1,0,3.,4.8,0.,4.8,0.,4.8,0.,4.8
1979-08-05 06:09:43.310 ,1,0,1.,4.8,0.,4.8,2.,4.8,0.,4.8
1979-08-05 06:09:48.110 ,1,0,4.,4.8,1.,4.8,0.,4.8,0.,4.8
1979-08-05 06:09:52.910 ,1,0,1.,4.8,0.,4.8,0.,4.8,0.,4.8
1979-08-05 06:09:57.710 ,1,0,3.,4.8,1.,4.8,1.,4.8,0.,4.8
1979-08-05 06:10:02.510 ,1,0,4.,4.8,0.,4.8,0.,4.8,0.,4.8
1979-08-05 06:10:07.310 ,1,0,4.,4.8,0.,4.8,1.,4.8,0.,4.8
1979-08-05 06:10:12.110 ,1,0,2.,4.8,0.,4.8,0.,4.8,0.,4.8
1979-08-05 06:10:16.910 ,1,0,2.,4.8,0.,4.8,1.,4.8,0.,4.8
1979-08-05 06:10:21.710 ,0,0,4.,4.8,1.,4.8,1.,4.8,0.,4.8
1979-08-05 06:10:26.510 ,0,0,2.,4.8,0.,4.8,0.,4.8,0.,4.8
1979-08-05 06:10:31.310 ,0,0,5.,4.8,0.,4.8,1.,4.8,0.,4.8
1979-08-05 06:10:36.110 ,0,0,1.,4.8,1.,4.8,0.,4.8,0.,4.8
1979-08-05 06:10:40.910 ,0,0,1.,4.8,0.,4.8,0.,4.8,0.,4.8
1979-08-05 06:10:45.710 ,0,0,2.,4.8,0.,4.8,0.,4.8,0.,4.8
1979-08-05 06:10:50.510 ,0,0,2.,4.8,0.,4.8,3.,4.8,0.,4.8
1979-08-05 06:10:55.310 ,0,0,4.,4.8,0.,4.8,0.,4.8,0.,4.8
1979-08-05 06:11:00.110 ,0,0,2.,4.8,0.,4.8,2.,4.8,0.,4.8
1979-08-05 06:11:04.910 ,0,0,3.,4.8,1.,4.8,1.,4.8,0.,4.8
1979-08-05 06:11:09.710 ,0,0,4.,4.8,0.,4.8,0.,4.8,0.,4.8
1979-08-05 06:11:14.510 ,0,0,,0,,0,,0,,0
1979-08-05 06:11:19.310 ,0,0,1.,4.8,1.,4.8,0.,4.8,0.,4.8
1979-08-05 06:11:24.110 ,0,0,1.,4.8,0.,4.8,1.,4.8,0.,4.8
1979-08-05 06:11:28.910 ,0,0,2.,4.8,1.,4.8,0.,4.8,1.,4.8
1979-08-05 06:11:33.710 ,0,0,5.,4.8,0.,4.8,0.,4.8,0.,4.8
1979-08-05 06:11:38.510 ,0,0,1.,4.8,0.,4.8,0.,4.8,0.,4.8
1979-08-05 06:11:43.310 ,0,0,3.,4.8,1.,4.8,2.,4.8,0.,4.8
1979-08-05 06:11:48.110 ,0,0,2.,4.8,0.,4.8,1.,4.8,0.,4.8
1979-08-05 06:11:52.910 ,0,0,0.,4.8,0.,4.8,0.,4.8,0.,4.8
1979-08-05 06:11:57.710 ,1,0,1.,4.8,0.,4.8,0.,4.8,0.,4.8
1979-08-05 06:12:02.510 ,1,0,1.,4.8,0.,4.8,0.,4.8,0.,4.8
1979-08-05 06:12:07.310 ,1,0,1.,4.8,1.,4.8,2.,4.8,0.,4.8
1979-08-05 06:12:12.110 ,1,0,4.,4.8,2.,4.8,2.,4.8,0.,4.8
1979-08-05 06:12:16.910 ,1,0,1.,4.8,1.,4.8,2.,4.8,0.,4.8
1979-08-05 06:12:21.710 ,1,0,0.,4.8,0.,4.8,0.,4.8,0.,4.8
1979-08-05 06:12:26.510 ,1,0,0.,4.8,1.,4.8,0.,4.8,0.,4.8
1979-08-05 06:12:31.310 ,1,0,1.,4.8,0.,4.8,0.,4.8,0.,4.8
1979-08-05 06:12:36.110 ,1,0,2.,4.8,0.,4.8,0.,4.8,0.,4.8
1979-08-05 06:12:40.910 ,1,0,2.,4.8,1.,4.8,0.,4.8,0.,4.8
1979-08-05 06:12:45.710 ,2,0,1.,4.8,1.,4.8,0.,4.8,0.,4.8
1979-08-05 06:12:50.510 ,2,0,2.,4.8,0.,4.8,2.,4.8,0.,4.8
1979-08-05 06:12:55.310 ,2,0,1.,4.8,2.,4.8,1.,4.8,0.,4.8
1979-08-05 06:13:00.110 ,2,0,5.,4.8,0.,4.8,1.,4.8,0.,4.8
1979-08-05 06:13:04.910 ,2,0,2.,4.8,1.,4.8,0.,4.8,0.,4.8
1979-08-05 06:13:09.710 ,2,0,2.,4.8,2.,4.8,0.,4.8,0.,4.8
1979-08-05 06:13:14.510 ,2,0,4.,4.8,0.,4.8,0.,4.8,0.,4.8
1979-08-05 06:13:19.310 ,2,0,2.,4.8,0.,4.8,0.,4.8,0.,4.8
1979-08-05 06:13:24.110 ,2,0,1.,4.8,2.,4.8,2.,4.8,0.,4.8
1979-08-05 06:13:28.910 ,2,0,1.,4.8,1.,4.8,2.,4.8,0.,4.8
1979-08-05 06:13:33.710 ,3,0,4.,4.8,0.,4.8,0.,4.8,0.,4.8
1979-08-05 06:13:38.510 ,3,0,2.,4.8,0.,4.8,0.,4.8,0.,4.8
1979-08-05 06:13:43.310 ,3,0,3.,4.8,0.,4.8,0.,4.8,0.,4.8
1979-08-05 06:13:48.110 ,3,0,1.,4.8,0.,4.8,0.,4.8,0.,4.8
1979-08-05 06:13:52.910 ,3,0,2.,4.8,2.,4.8,0.,4.8,0.,4.8
1979-08-05 06:13:57.710 ,3,0,1.,4.8,0.,4.8,0.,4.8,0.,4.8
1979-08-05 06:14:02.510 ,3,0,1.,4.8,0.,4.8,0.,4.8,0.,4.8
1979-08-05 06:14:07.310 ,3,0,0.,4.8,0.,4.8,0.,4.8,0.,4.8
1979-08-05 06:14:12.110 ,3,0,2.,4.8,0.,4.8,1.,4.8,0.,4.8
1979-08-05 06:14:16.910 ,3,0,3.,4.8,0.,4.8,0.,4.8,0.,4.8
1979-08-05 06:14:21.710 ,4,0,0.,4.8,0.,4.8,0.,4.8,0.,4.8
1979-08-05 06:14:26.510 ,4,0,3.,4.8,0.,4.8,0.,4.8,0.,4.8
1979-08-05 06:14:31.310 ,4,0,4.,4.8,0.,4.8,1.,4.8,0.,4.8
1979-08-05 06:14:36.110 ,4,0,6.,4.8,0.,4.8,0.,4.8,0.,4.8
1979-08-05 06:14:40.910 ,4,0,3.,4.8,0.,4.8,0.,4.8,0.,4.8
1979-08-05 06:14:45.710 ,4,0,1.,4.8,0.,4.8,1.,4.8,0.,4.8
1979-08-05 06:14:50.510 ,4,0,1.,4.8,1.,4.8,0.,4.8,0.,4.8
1979-08-05 06:14:55.310 ,4,0,0.,4.8,0.,4.8,1.,4.8,0.,4.8
1979-08-05 06:15:00.110 ,4,0,1.,4.8,1.,4.8,2.,4.8,0.,4.8
1979-08-05 06:15:04.910 ,4,0,1.,4.8,0.,4.8,0.,4.8,0.,4.8
1979-08-05 06:15:09.710 ,5,0,3.,4.8,1.,4.8,0.,4.8,0.,4.8
1979-08-05 06:15:14.510 ,5,0,1.,4.8,0.,4.8,3.,4.8,0.,4.8
1979-08-05 06:15:19.310 ,5,0,0.,4.8,0.,4.8,0.,4.8,0.,4.8
1979-08-05 06:15:24.110 ,5,0,1.,4.8,1.,4.8,2.,4.8,0.,4.8
1979-08-05 06:15:28.910 ,5,0,,0,,0,,0,,0
1979-08-05 06:15:33.710 ,5,0,0.,4.8,1.,4.8,0.,4.8,0.,4.8
1979-08-05 06:15:38.510 ,5,0,1.,4.8,1.,4.8,0.,4.8,0.,4.8
1979-08-05 06:15:43.310 ,5,0,2.,4.8,1.,4.8,1.,4.8,0.,4.8
1979-08-05 06:15:48.110 ,5,0,5.,4.8,0.,4.8,1.,4.8,0.,4.8
1979-08-05 06:15:52.910 ,5,0,2.,4.8,0.,4.8,0.,4.8,0.,4.8
1979-08-05 06:15:57.710 ,6,0,2.,4.8,1.,4.8,0.,4.8,0.,4.8
1979-08-05 06:16:02.510 ,6,0,3.,4.8,1.,4.8,1.,4.8,0.,4.8
1979-08-05 06:16:07.310 ,6,0,1.,4.8,0.,4.8,3.,4.8,0.,4.8
1979-08-05 06:16:12.110 ,6,0,1.,4.8,0.,4.8,0.,4.8,0.,4.8
1979-08-05 06:16:16.910 ,6,0,1.,4.8,1.,4.8,1.,4.8,0.,4.8
1979-08-05 06:16:21.710 ,6,0,0.,4.8,0.,4.8,1.,4.8,0.,4.8
1979-08-05 06:16:26.510 ,6,0,1.,4.8,0.,4.8,1.,4.8,0.,4.8
1979-08-05 06:16:31.310 ,6,0,3.,4.8,2.,4.8,0.,4.8,0.,4.8
1979-08-05 06:16:36.110 ,6,0,0.,4.8,0.,4.8,1.,4.8,1.,4.8
1979-08-05 06:16:40.910 ,6,0,2.,4.8,1.,4.8,2.,4.8,0.,4.8
1979-08-05 06:16:45.710 ,7,0,2.,4.8,1.,4.8,1.,4.8,0.,4.8
1979-08-05 06:16:50.510 ,7,0,3.,4.8,1.,4.8,0.,4.8,0.,4.8
1979-08-05 06:16:55.310 ,7,0,2.,4.8,1.,4.8,1.,4.8,0.,4.8
1979-08-05 06:17:00.110 ,7,0,0.,4.8,0.,4.8,0.,4.8,0.,4.8
1979-08-05 06:17:04.910 ,7,0,0.,4.8,1.,4.8,0.,4.8,0.,4.8
1979-08-05 06:17:09.710 ,7,0,1.,4.8,1.,4.8,0.,4.8,0.,4.8
1979-08-05 06:17:14.510 ,7,0,0.,4.8,0.,4.8,0.,4.8,0.,4.8
1979-08-05 06:17:19.310 ,7,0,0.,4.8,0.,4.8,0.,4.8,0.,4.8
1979-08-05 06:17:24.110 ,7,0,0.,4.8,0.,4.8,0.,4.8,0.,4.8
1979-08-05 06:17:28.910 ,7,0,0.,4.8,0.,4.8,0.,4.8,0.,4.8
1979-08-05 06:17:33.710 ,7,0,0.,4.8,0.,4.8,0.,4.8,0.,4.8
1979-08-05 06:17:38.510 ,7,0,0.,4.8,0.,4.8,0.,4.8,0.,4.8
1979-08-05 06:17:43.310 ,7,0,1.,4.8,0.,4.8,2.,4.8,0.,4.8
1979-08-05 06:17:48.110 ,7,0,1.,4.8,0.,4.8,2.,4.8,0.,4.8
1979-08-05 06:17:52.910 ,7,0,2.,4.8,0.,4.8,0.,4.8,0.,4.8
1979-08-05 06:17:57.710 ,7,0,1.,4.8,1.,4.8,0.,4.8,0.,4.8
1979-08-05 06:18:02.510 ,7,0,2.,4.8,0.,4.8,1.,4.8,0.,4.8
1979-08-05 06:18:07.310 ,7,0,1.,4.8,0.,4.8,1.,4.8,0.,4.8
1979-08-05 06:18:12.110 ,7,0,0.,4.8,1.,4.8,2.,4.8,0.,4.8
1979-08-05 06:18:16.910 ,7,0,1.,4.8,1.,4.8,0.,4.8,0.,4.8
1979-08-05 06:18:21.710 ,6,0,3.,4.8,0.,4.8,1.,4.8,0.,4.8
1979-08-05 06:18:26.510 ,6,0,1.,4.8,1.,4.8,0.,4.8,0.,4.8
1979-08-05 06:18:31.310 ,6,0,1.,4.8,0.,4.8,0.,4.8,0.,4.8
1979-08-05 06:18:36.110 ,6,0,4.,4.8,1.,4.8,1.,4.8,0.,4.8
1979-08-05 06:18:40.910 ,6,0,1.,4.8,0.,4.8,1.,4.8,0.,4.8
1979-08-05 06:18:45.710 ,6,0,1.,4.8,0.,4.8,1.,4.8,0.,4.8
1979-08-05 06:18:50.510 ,6,0,0.,4.8,1.,4.8,0.,4.8,0.,4.8
1979-08-05 06:18:55.310 ,6,0,2.,4.8,0.,4.8,1.,4.8,0.,4.8
1979-08-05 06:19:00.110 ,6,0,2.,4.8,1.,4.8,0.,4.8,0.,4.8
1979-08-05 06:19:04.910 ,6,0,2.,4.8,0.,4.8,0.,4.8,0.,4.8
1979-08-05 06:19:09.710 ,5,0,1.,4.8,0.,4.8,1.,4.8,0.,4.8
1979-08-05 06:19:14.510 ,5,0,1.,4.8,0.,4.8,1.,4.8,0.,4.8
1979-08-05 06:19:19.310 ,5,0,2.,4.8,0.,4.8,0.,4.8,1.,4.8
1979-08-05 06:19:24.110 ,5,0,4.,4.8,1.,4.8,1.,4.8,0.,4.8
1979-08-05 06:19:28.910 ,5,0,1.,4.8,1.,4.8,2.,4.8,0.,4.8
1979-08-05 06:19:33.710 ,5,0,0.,4.8,0.,4.8,0.,4.8,0.,4.8
1979-08-05 06:19:38.510 ,5,0,1.,4.8,0.,4.8,1.,4.8,0.,4.8
1979-08-05 06:19:43.310 ,5,0,2.,4.8,2.,4.8,0.,4.8,0.,4.8
1979-08-05 06:19:48.110 ,5,0,2.,4.8,1.,4.8,0.,4.8,0.,4.8
1979-08-05 06:19:52.910 ,5,0,1.,4.8,0.,4.8,1.,4.8,0.,4.8
1979-08-05 06:19:57.710 ,4,0,1.,4.8,1.,4.8,0.,4.8,0.,4.8
1979-08-05 06:20:02.510 ,4,0,1.,4.8,0.,4.8,2.,4.8,0.,4.8
1979-08-05 06:20:07.310 ,4,0,3.,4.8,0.,4.8,0.,4.8,0.,4.8
1979-08-05 06:20:12.110 ,4,0,1.,4.8,1.,4.8,2.,4.8,0.,4.8
1979-08-05 06:20:16.910 ,4,0,2.,4.8,0.,4.8,0.,4.8,0.,4.8
1979-08-05 06:20:21.710 ,4,0,3.,4.8,1.,4.8,1.,4.8,0.,4.8
1979-08-05 06:20:26.510 ,4,0,2.,4.8,0.,4.8,1.,4.8,0.,4.8
1979-08-05 06:20:31.310 ,4,0,1.,4.8,1.,4.8,1.,4.8,0.,4.8
1979-08-05 06:20:36.110 ,4,0,3.,4.8,1.,4.8,0.,4.8,0.,4.8
1979-08-05 06:20:40.910 ,4,0,0.,4.8,0.,4.8,0.,4.8,0.,4.8
1979-08-05 06:20:45.710 ,3,0,1.,4.8,2.,4.8,1.,4.8,0.,4.8
1979-08-05 06:20:50.510 ,3,0,2.,4.8,1.,4.8,0.,4.8,0.,4.8
1979-08-05 06:20:55.310 ,3,0,4.,4.8,0.,4.8,0.,4.8,0.,4.8
1979-08-05 06:21:00.110 ,3,0,3.,4.8,0.,4.8,0.,4.8,0.,4.8
1979-08-05 06:21:04.910 ,3,0,0.,4.8,0.,4.8,0.,4.8,0.,4.8
1979-08-05 06:21:09.710 ,3,0,4.,4.8,0.,4.8,0.,4.8,0.,4.8
1979-08-05 06:21:14.510 ,3,0,0.,4.8,0.,4.8,1.,4.8,0.,4.8
1979-08-05 06:21:19.310 ,3,0,0.,4.8,0.,4.8,0.,4.8,0.,4.8
1979-08-05 06:21:24.110 ,3,0,2.,4.8,0.,4.8,0.,4.8,0.,4.8
1979-08-05 06:21:28.910 ,3,0,0.,4.8,0.,4.8,0.,4.8,0.,4.8
1979-08-05 06:21:33.710 ,2,0,2.,4.8,0.,4.8,0.,4.8,0.,4.8
1979-08-05 06:21:38.510 ,2,0,1.,4.8,1.,4.8,0.,4.8,0.,4.8
1979-08-05 06:21:43.310 ,2,0,4.,4.8,0.,4.8,2.,4.8,0.,4.8
1979-08-05 06:21:48.110 ,2,0,2.,4.8,2.,4.8,0.,4.8,0.,4.8
1979-08-05 06:21:52.910 ,2,0,1.,4.8,1.,4.8,0.,4.8,0.,4.8
1979-08-05 06:21:57.710 ,2,0,1.,4.8,0.,4.8,1.,4.8,0.,4.8
1979-08-05 06:22:02.510 ,2,0,4.,4.8,0.,4.8,0.,4.8,0.,4.8
1979-08-05 06:22:07.310 ,2,0,4.,4.8,0.,4.8,1.,4.8,0.,4.8
1979-08-05 06:22:12.110 ,2,0,1.,4.8,1.,4.8,1.,4.8,0.,4.8
1979-08-05 06:22:16.910 ,2,0,1.,4.8,0.,4.8,1.,4.8,0.,4.8
1979-08-05 06:22:21.710 ,1,0,2.,4.8,0.,4.8,2.,4.8,0.,4.8
1979-08-05 06:22:26.510 ,1,0,1.,4.8,0.,4.8,2.,4.8,0.,4.8
1979-08-05 06:22:31.310 ,1,0,3.,4.8,0.,4.8,1.,4.8,0.,4.8
1979-08-05 06:22:36.110 ,1,0,0.,4.8,1.,4.8,0.,4.8,0.,4.8
1979-08-05 06:22:40.910 ,1,0,1.,4.8,0.,4.8,2.,4.8,0.,4.8
1979-08-05 06:22:45.710 ,1,0,1.,4.8,0.,4.8,2.,4.8,0.,4.8
1979-08-05 06:22:50.510 ,1,0,1.,4.8,0.,4.8,1.,4.8,0.,4.8
1979-08-05 06:22:55.310 ,1,0,2.,4.8,0.,4.8,0.,4.8,0.,4.8
1979-08-05 06:23:00.110 ,1,0,2.,4.8,0.,4.8,0.,4.8,0.,4.8
1979-08-05 06:23:04.910 ,1,0,1.,4.8,0.,4.8,0.,4.8,0.,4.8
1979-08-05 06:23:09.710 ,0,0,1.,4.8,0.,4.8,1.,4.8,0.,4.8
1979-08-05 06:23:14.510 ,0,0,3.,4.8,0.,4.8,1.,4.8,0.,4.8
1979-08-05 06:23:19.310 ,0,0,0.,4.8,1.,4.8,1.,4.8,0.,4.8
1979-08-05 06:23:24.110 ,0,0,2.,4.8,1.,4.8,0.,4.8,0.,4.8
1979-08-05 06:23:28.910 ,0,0,0.,4.8,0.,4.8,0.,4.8,0.,4.8
1979-08-05 06:23:33.710 ,0,0,3.,4.8,2.,4.8,2.,4.8,0.,4.8
1979-08-05 06:23:38.510 ,0,0,3.,4.8,2.,4.8,1.,4.8,0.,4.8
1979-08-05 06:23:43.310 ,0,0,0.,4.8,1.,4.8,0.,4.8,0.,4.8
1979-08-05 06:23:48.110 ,0,0,0.,4.8,0.,4.8,0.,4.8,0.,4.8
1979-08-05 06:23:52.910 ,0,0,1.,4.8,1.,4.8,0.,4.8,0.,4.8
1979-08-05 06:23:57.710 ,0,0,4.,4.8,1.,4.8,1.,4.8,0.,4.8
1979-08-05 06:24:02.510 ,0,0,3.,4.8,1.,4.8,1.,4.8,0.,4.8
1979-08-05 06:24:07.310 ,0,0,0.,4.8,0.,4.8,0.,4.8,0.,4.8
1979-08-05 06:24:12.110 ,0,0,3.,4.8,0.,4.8,0.,4.8,0.,4.8
1979-08-05 06:24:16.910 ,0,0,2.,4.8,1.,4.8,0.,4.8,0.,4.8
1979-08-05 06:24:21.710 ,0,0,2.,4.8,1.,4.8,0.,4.8,0.,4.8
1979-08-05 06:24:26.510 ,0,0,2.,4.8,0.,4.8,0.,4.8,0.,4.8
1979-08-05 06:24:31.310 ,0,0,3.,4.8,0.,4.8,0.,4.8,0.,4.8
1979-08-05 06:24:36.110 ,0,0,0.,4.8,0.,4.8,1.,4.8,0.,4.8
1979-08-05 06:24:40.910 ,0,0,5.,4.8,0.,4.8,1.,4.8,0.,4.8
1979-08-05 06:24:45.710 ,1,0,4.,4.8,0.,4.8,0.,4.8,0.,4.8
1979-08-05 06:24:50.510 ,1,0,0.,4.8,2.,4.8,2.,4.8,0.,4.8
1979-08-05 06:24:55.310 ,1,0,2.,4.8,1.,4.8,1.,4.8,0.,4.8
1979-08-05 06:25:00.110 ,1,0,1.,4.8,0.,4.8,1.,4.8,0.,4.8
1979-08-05 06:25:04.910 ,1,0,0.,4.8,2.,4.8,0.,4.8,0.,4.8
1979-08-05 06:25:09.710 ,1,0,2.,4.8,0.,4.8,0.,4.8,0.,4.8
1979-08-05 06:25:14.510 ,1,0,5.,4.8,0.,4.8,1.,4.8,0.,4.8
1979-08-05 06:25:19.310 ,1,0,3.,4.8,1.,4.8,2.,4.8,0.,4.8
1979-08-05 06:25:24.110 ,1,0,3.,4.8,0.,4.8,1.,4.8,0.,4.8
1979-08-05 06:25:28.910 ,1,0,2.,4.8,2.,4.8,0.,4.8,0.,4.8
1979-08-05 06:25:33.710 ,2,0,4.,4.8,0.,4.8,0.,4.8,0.,4.8
1979-08-05 06:25:38.510 ,2,0,3.,4.8,0.,4.8,1.,4.8,0.,4.8
1979-08-05 06:25:43.310 ,2,0,2.,4.8,1.,4.8,1.,4.8,0.,4.8
1979-08-05 06:25:48.110 ,2,0,3.,4.8,0.,4.8,2.,4.8,0.,4.8
1979-08-05 06:25:52.910 ,2,0,0.,4.8,0.,4.8,1.,4.8,0.,4.8
1979-08-05 06:25:57.710 ,2,0,2.,4.8,4.,4.8,0.,4.8,0.,4.8
1979-08-05 06:26:02.510 ,2,0,1.,4.8,1.,4.8,0.,4.8,0.,4.8
1979-08-05 06:26:07.310 ,2,0,0.,4.8,1.,4.8,3.,4.8,0.,4.8
1979-08-05 06:26:12.110 ,2,0,3.,4.8,0.,4.8,1.,4.8,0.,4.8
1979-08-05 06:26:16.910 ,2,0,4.,4.8,0.,4.8,1.,4.8,0.,4.8
1979-08-05 06:26:21.710 ,3,0,0.,4.8,1.,4.8,1.,4.8,0.,4.8
1979-08-05 06:26:26.510 ,3,0,0.,4.8,0.,4.8,0.,4.8,0.,4.8
1979-08-05 06:26:31.310 ,3,0,3.,4.8,0.,4.8,0.,4.8,0.,4.8
1979-08-05 06:26:36.110 ,3,0,0.,4.8,0.,4.8,0.,4.8,0.,4.8
1979-08-05 06:26:40.910 ,3,0,0.,4.8,0.,4.8,0.,4.8,0.,4.8
1979-08-05 06:26:45.710 ,3,0,2.,4.8,0.,4.8,0.,4.8,0.,4.8
1979-08-05 06:26:50.510 ,3,0,0.,4.8,0.,4.8,1.,4.8,0.,4.8
1979-08-05 06:26:55.310 ,3,0,2.,4.8,0.,4.8,1.,4.8,0.,4.8
1979-08-05 06:27:00.110 ,3,0,0.,4.8,0.,4.8,2.,4.8,0.,4.8
1979-08-05 06:27:04.910 ,3,0,5.,4.8,0.,4.8,2.,4.8,0.,4.8
1979-08-05 06:27:09.710 ,4,0,1.,4.8,0.,4.8,0.,4.8,0.,4.8
1979-08-05 06:27:14.510 ,4,0,3.,4.8,1.,4.8,0.,4.8,0.,4.8
1979-08-05 06:27:19.310 ,4,0,1.,4.8,0.,4.8,2.,4.8,0.,4.8
1979-08-05 06:27:24.110 ,4,0,0.,4.8,1.,4.8,2.,4.8,0.,4.8
1979-08-05 06:27:28.910 ,4,0,0.,4.8,1.,4.8,0.,4.8,0.,4.8
1979-08-05 06:27:33.710 ,4,0,2.,4.8,0.,4.8,0.,4.8,0.,4.8
1979-08-05 06:27:38.510 ,4,0,1.,4.8,0.,4.8,1.,4.8,0.,4.8
1979-08-05 06:27:43.310 ,4,0,4.,4.8,0.,4.8,0.,4.8,0.,4.8
1979-08-05 06:27:48.110 ,4,0,1.,4.8,3.,4.8,0.,4.8,0.,4.8
1979-08-05 06:27:52.910 ,4,0,1.,4.8,0.,4.8,0.,4.8,0.,4.8
1979-08-05 06:27:57.710 ,5,0,1.,4.8,1.,4.8,0.,4.8,0.,4.8
1979-08-05 06:28:02.510 ,5,0,1.,4.8,1.,4.8,0.,4.8,0.,4.8
1979-08-05 06:28:07.310 ,5,0,1.,4.8,0.,4.8,0.,4.8,0.,4.8
1979-08-05 06:28:12.110 ,5,0,3.,4.8,2.,4.8,0.,4.8,0.,4.8
1979-08-05 06:28:16.910 ,5,0,2.,4.8,0.,4.8,0.,4.8,0.,4.8
1979-08-05 06:28:21.710 ,5,0,0.,4.8,2.,4.8,0.,4.8,0.,4.8
1979-08-05 06:28:26.510 ,5,0,3.,4.8,0.,4.8,1.,4.8,0.,4.8
1979-08-05 06:28:31.310 ,5,0,3.,4.8,0.,4.8,0.,4.8,0.,4.8
1979-08-05 06:28:36.110 ,5,0,1.,4.8,2.,4.8,0.,4.8,0.,4.8
1979-08-05 06:28:40.910 ,5,0,2.,4.8,1.,4.8,0.,4.8,0.,4.8
1979-08-05 06:28:45.710 ,6,0,1.,4.8,1.,4.8,1.,4.8,0.,4.8
1979-08-05 06:28:50.510 ,6,0,5.,4.8,1.,4.8,0.,4.8,0.,4.8
1979-08-05 06:28:55.310 ,6,0,1.,4.8,0.,4.8,1.,4.8,0.,4.8
1979-08-05 06:29:00.110 ,6,0,1.,4.8,0.,4.8,0.,4.8,0.,4.8
1979-08-05 06:29:04.910 ,6,0,3.,4.8,0.,4.8,1.,4.8,0.,4.8
1979-08-05 06:29:09.710 ,6,0,3.,4.8,0.,4.8,0.,4.8,0.,4.8
1979-08-05 06:29:14.510 ,6,0,1.,4.8,1.,4.8,1.,4.8,0.,4.8
1979-08-05 06:29:19.310 ,6,0,1.,4.8,1.,4.8,1.,4.8,0.,4.8
1979-08-05 06:29:24.110 ,6,0,2.,4.8,1.,4.8,0.,4.8,0.,4.8
1979-08-05 06:29:28.910 ,6,0,2.,4.8,0.,4.8,0.,4.8,0.,4.8
1979-08-05 06:29:33.710 ,7,0,2.,4.8,0.,4.8,3.,4.8,0.,4.8
1979-08-05 06:29:38.510 ,7,0,5.,4.8,0.,4.8,0.,4.8,0.,4.8
1979-08-05 06:29:43.310 ,7,0,1.,4.8,0.,4.8,0.,4.8,0.,4.8
1979-08-05 06:29:48.110 ,7,0,2.,4.8,1.,4.8,0.,4.8,0.,4.8
1979-08-05 06:29:52.910 ,7,0,2.,4.8,0.,4.8,1.,4.8,0.,4.8
1979-08-05 06:29:57.710 ,7,0,1.,4.8,1.,4.8,1.,4.8,0.,4.8
1979-08-05 06:30:02.510 ,7,0,0.,4.8,2.,4.8,0.,4.8,0.,4.8
1979-08-05 06:30:07.310 ,7,0,2.,4.8,0.,4.8,2.,4.8,0.,4.8
1979-08-05 06:30:12.110 ,7,0,0.,4.8,2.,4.8,1.,4.8,0.,4.8
1979-08-05 06:30:16.910 ,7,0,1.,4.8,1.,4.8,0.,4.8,0.,4.8
1979-08-05 06:30:21.710 ,7,0,2.,4.8,0.,4.8,0.,4.8,0.,4.8
1979-08-05 06:30:26.510 ,7,0,2.,4.8,1.,4.8,0.,4.8,0.,4.8
1979-08-05 06:30:31.310 ,7,0,0.,4.8,0.,4.8,1.,4.8,0.,4.8
1979-08-05 06:30:36.110 ,7,0,0.,4.8,0.,4.8,1.,4.8,0.,4.8
1979-08-05 06:30:40.910 ,7,0,1.,4.8,0.,4.8,2.,4.8,0.,4.8
1979-08-05 06:30:45.710 ,7,0,4.,4.8,0.,4.8,1.,4.8,0.,4.8
1979-08-05 06:30:50.510 ,7,0,6.,4.8,1.,4.8,0.,4.8,0.,4.8
1979-08-05 06:30:55.310 ,7,0,1.,4.8,0.,4.8,1.,4.8,0.,4.8
1979-08-05 06:31:00.110 ,7,0,3.,4.8,0.,4.8,0.,4.8,0.,4.8
1979-08-05 06:31:04.910 ,7,0,1.,4.8,0.,4.8,0.,4.8,0.,4.8
1979-08-05 06:31:09.710 ,6,0,1.,4.8,0.,4.8,0.,4.8,0.,4.8
1979-08-05 06:31:14.510 ,6,0,1.,4.8,0.,4.8,1.,4.8,0.,4.8
1979-08-05 06:31:19.310 ,6,0,2.,4.8,1.,4.8,0.,4.8,0.,4.8
1979-08-05 06:31:24.110 ,6,0,5.,4.8,0.,4.8,0.,4.8,0.,4.8
1979-08-05 06:31:28.910 ,6,0,1.,4.8,0.,4.8,0.,4.8,0.,4.8
1979-08-05 06:31:33.710 ,6,0,3.,4.8,0.,4.8,0.,4.8,0.,4.8
1979-08-05 06:31:38.510 ,6,0,0.,4.8,0.,4.8,3.,4.8,0.,4.8
1979-08-05 06:31:43.310 ,6,0,2.,4.8,0.,4.8,0.,4.8,0.,4.8
1979-08-05 06:31:48.110 ,6,0,2.,4.8,0.,4.8,0.,4.8,0.,4.8
1979-08-05 06:31:52.910 ,6,0,2.,4.8,0.,4.8,0.,4.8,0.,4.8
1979-08-05 06:31:57.710 ,5,0,,0,,0,,0,,0
1979-08-05 06:32:02.510 ,5,0,1.,4.8,1.,4.8,0.,4.8,0.,4.8
1979-08-05 06:32:07.310 ,5,0,1.,4.8,1.,4.8,1.,4.8,0.,4.8
1979-08-05 06:32:12.110 ,5,0,2.,4.8,1.,4.8,1.,4.8,0.,4.8
1979-08-05 06:32:16.910 ,5,0,5.,4.8,1.,4.8,0.,4.8,0.,4.8
1979-08-05 06:32:21.710 ,5,0,4.,4.8,1.,4.8,2.,4.8,0.,4.8
1979-08-05 06:32:26.510 ,5,0,1.,4.8,0.,4.8,1.,4.8,0.,4.8
1979-08-05 06:32:31.310 ,5,0,2.,4.8,0.,4.8,0.,4.8,0.,4.8
1979-08-05 06:32:36.110 ,5,0,2.,4.8,1.,4.8,0.,4.8,0.,4.8
1979-08-05 06:32:40.910 ,5,0,3.,4.8,2.,4.8,1.,4.8,0.,4.8
1979-08-05 06:32:45.710 ,4,0,2.,4.8,0.,4.8,0.,4.8,0.,4.8
1979-08-05 06:32:50.510 ,4,0,1.,4.8,2.,4.8,0.,4.8,0.,4.8
1979-08-05 06:32:55.310 ,4,0,3.,4.8,0.,4.8,2.,4.8,0.,4.8
1979-08-05 06:33:00.110 ,4,0,0.,4.8,1.,4.8,0.,4.8,0.,4.8
1979-08-05 06:33:04.910 ,4,0,3.,4.8,1.,4.8,0.,4.8,0.,4.8
1979-08-05 06:33:09.710 ,4,0,1.,4.8,0.,4.8,0.,4.8,0.,4.8
1979-08-05 06:33:14.510 ,4,0,2.,4.8,0.,4.8,0.,4.8,0.,4.8
1979-08-05 06:33:19.310 ,4,0,0.,4.8,4.,4.8,1.,4.8,0.,4.8
1979-08-05 06:33:24.110 ,4,0,1.,4.8,1.,4.8,1.,4.8,0.,4.8